EW5207 Weather Reports


time (UTC)temp
C
wind
direction
speed
KPH
gust
KPH
rain 1hr
cm
rain 24hr
cm
rain mn
cm
humidity
%
barometer
mb
20260510120009 12 114 0.0 3.2 0.00 0.00 0.00 99 1010.0
20260510115917 11 232 0.0 0.0 0.00 0.30 0.00 97 1011.6
20260510115704 11 232 0.0 0.0 0.00 0.30 0.00 96 1011.6
20260510115506 11 126 1.6 3.2 0.00 0.00 0.00 99 1010.0
20260510115002 11 74 1.6 1.6 0.00 0.00 0.00 99 1010.1
20260510114917 10 232 0.0 0.0 0.00 0.30 0.00 96 1011.6
20260510114459 11 99 0.0 1.6 0.00 0.00 0.00 99 1009.7
20260510114416 10 232 0.0 0.0 0.00 0.30 0.00 96 1011.5
20260510114203 10 232 0.0 0.0 0.00 0.30 0.00 96 1011.2
20260510113955 10 90 0.0 3.2 0.00 0.00 0.00 99 1009.8
20260510113450 10 120 0.0 3.2 0.00 0.00 0.00 99 1009.7
20260510113416 10 232 0.0 0.0 0.00 0.30 0.00 96 1011.2
20260510112948 10 96 3.2 3.2 0.00 0.00 0.00 99 1009.6
20260510112913 10 232 0.0 0.0 0.00 0.30 0.00 96 1011.2
20260510112445 10 90 1.6 3.2 0.00 0.00 0.00 99 1009.4
20260510112412 10 232 0.0 0.0 0.00 0.30 0.00 96 1011.2
20260510112153 10 232 0.0 0.0 0.00 0.30 0.00 96 1011.2
20260510111941 10 90 1.6 3.2 0.00 0.00 0.00 99 1009.5
20260510111437 10 69 0.0 3.2 0.00 0.00 0.00 99 1009.4
20260510111410 10 231 0.0 0.0 0.00 0.30 0.00 96 1011.2
20260510110933 10 90 1.6 3.2 0.00 0.00 0.00 99 1009.0
20260510110907 10 231 0.0 0.0 0.00 0.30 0.00 96 1011.1
20260510110430 10 78 1.6 3.2 0.00 0.00 0.00 99 1009.2
20260510110405 10 230 0.0 0.0 0.00 0.30 0.00 96 1011.1
20260510105926 10 81 0.0 1.6 0.00 0.00 0.00 99 1009.1
20260510105905 9 230 0.0 0.0 0.00 0.30 0.00 96 1011.1
20260510105421 10 83 1.6 3.2 0.00 0.00 0.00 99 1009.2
20260510105406 9 230 0.0 0.0 0.00 0.30 0.00 96 1011.0
20260510104916 10 94 3.2 4.8 0.00 0.00 0.00 99 1009.1
20260510104904 9 230 0.0 0.0 0.00 0.30 0.00 96 1011.1
20260510104414 9 98 1.6 4.8 0.00 0.00 0.00 99 1009.2
20260510104354 9 230 0.0 0.0 0.00 0.30 0.00 96 1011.1
20260510103910 9 106 0.0 1.6 0.00 0.00 0.00 99 1009.8
20260510103903 9 230 0.0 0.0 0.00 0.30 0.00 96 1011.2
20260510103408 9 103 3.2 3.2 0.00 0.00 0.00 99 1009.4
20260510103354 9 230 0.0 0.0 0.00 0.30 0.00 95 1010.9
20260510102902 9 106 0.0 3.2 0.00 0.00 0.00 99 1009.3
20260510102853 9 230 0.0 0.0 0.00 0.30 0.00 96 1011.0
20260510102358 9 90 0.0 1.6 0.00 0.00 0.00 99 1009.1
20260510102352 9 230 0.0 0.0 0.00 0.30 0.00 96 1010.9
20260510102142 9 230 0.0 0.0 0.00 0.30 0.00 96 1010.9
20260510101856 9 66 1.6 3.2 0.00 0.00 0.00 99 1009.1
20260510101354 9 230 0.0 0.0 0.00 0.30 0.00 96 1010.8
20260510100854 9 230 0.0 0.0 0.00 0.30 0.00 95 1010.7
20260510100850 9 80 3.2 3.2 0.00 0.00 0.00 99 1008.8
20260510100709 9 230 0.0 0.0 0.00 0.30 0.00 96 1010.6
20260510100418 9 230 0.0 0.0 0.00 0.30 0.00 95 1010.6
20260510100348 9 106 3.2 3.2 0.00 0.00 0.00 99 1008.9
20260510095844 9 110 3.2 3.2 0.00 0.00 0.00 99 1008.8
20260510095351 9 230 0.0 0.0 0.00 0.30 0.00 95 1010.6
20260510095339 10 77 1.6 3.2 0.00 0.00 0.00 99 1008.8
20260510095122 9 230 0.0 0.0 0.00 0.30 0.00 96 1010.5
20260510094839 9 69 1.6 3.2 0.00 0.00 0.00 99 1008.9
20260510094346 9 230 0.0 0.0 0.00 0.30 0.00 95 1010.3
20260510094334 9 84 3.2 3.2 0.00 0.00 0.00 99 1008.4
20260510093844 9 230 0.0 0.0 0.00 0.30 0.00 95 1010.2
20260510093830 9 90 3.2 3.2 0.00 0.00 0.00 99 1008.2
20260510093345 9 230 0.0 0.0 0.00 0.30 0.00 96 1010.2
20260510093326 9 96 3.2 3.2 0.00 0.00 0.00 99 1008.5
20260510092842 10 230 0.0 0.0 0.00 0.30 0.00 96 1010.2
20260510092822 9 113 3.2 4.8 0.00 0.00 0.00 99 1008.2
20260510092626 10 230 0.0 0.0 0.00 0.30 0.00 96 1010.3
20260510092319 10 103 1.6 3.2 0.00 0.00 0.00 99 1008.6
20260510091837 10 230 0.0 0.0 0.00 0.30 0.00 96 1010.3
20260510091815 10 60 3.2 3.2 0.00 0.00 0.00 99 1008.6
20260510091338 10 230 0.0 0.0 0.00 0.30 0.00 96 1010.2
20260510091312 10 75 1.6 3.2 0.00 0.00 0.00 99 1008.4
20260510090838 10 230 0.0 0.0 0.00 0.30 0.00 96 1010.1
20260510090809 10 90 3.2 3.2 0.00 0.00 0.00 99 1008.3
20260510090335 10 230 0.0 0.0 0.00 0.30 0.00 96 1010.1
20260510090305 10 108 3.2 3.2 0.00 0.00 0.00 99 1008.4
20260510085836 10 232 0.0 0.0 0.00 0.30 0.00 96 1010.1
20260510085801 10 35 1.6 3.2 0.00 0.00 0.00 99 1008.4
20260510085336 10 230 0.0 0.0 0.00 0.30 0.00 96 1010.0
20260510085255 10 90 3.2 3.2 0.00 0.00 0.00 99 1008.3
20260510084834 10 230 0.0 0.0 0.00 0.30 0.00 96 1010.0
20260510084751 10 83 4.8 4.8 0.00 0.00 0.00 99 1008.4
20260510084334 10 230 0.0 0.0 0.00 0.30 0.00 95 1010.2
20260510084248 10 105 3.2 3.2 0.00 0.00 0.00 99 1008.5
20260510083836 10 232 0.0 0.0 0.00 0.30 0.00 95 1010.3
20260510083745 10 131 0.0 3.2 0.00 0.00 0.00 99 1008.7
20260510083619 10 232 0.0 0.0 0.00 0.30 0.00 95 1010.2
20260510083242 10 117 3.2 4.8 0.00 0.00 0.00 99 1008.6
20260510082834 10 170 0.0 4.8 0.00 0.30 0.00 95 1010.3
20260510082738 10 71 3.2 6.4 0.00 0.00 0.00 99 1008.3
20260510082336 10 243 0.0 4.8 0.00 0.30 0.00 96 1010.5
20260510082234 10 342 1.6 3.2 0.00 0.00 0.00 99 1008.7
20260510081835 10 95 1.6 9.7 0.00 0.30 0.00 96 1010.2
20260510081733 10 111 8.0 8.0 0.00 0.00 0.00 99 1008.6
20260510081342 10 94 3.2 9.7 0.00 0.30 0.00 96 1010.3
20260510081230 10 117 4.8 8.0 0.00 0.00 0.00 99 1008.4
20260510081121 10 86 3.2 6.4 0.00 0.30 0.00 96 1010.5
20260510080725 10 0 3.2 6.4 0.00 0.00 0.00 99 1009.1
20260510080330 9 108 3.2 9.7 0.00 0.30 0.00 96 1009.9
20260510080221 10 124 8.0 11.3 0.00 0.00 0.00 99 1008.3
20260510075830 9 286 3.2 11.3 0.00 0.30 0.00 96 1010.6
20260510075718 10 356 3.2 6.4 0.00 0.00 0.00 99 1008.6
20260510075610 8 103 4.8 14.5 0.00 0.30 0.00 95 1010.0
20260510075216 9 95 3.2 6.4 0.00 0.00 0.00 99 1008.8
20260510074829 8 94 3.2 14.5 0.00 0.30 0.00 95 1009.8
20260510074712 9 104 9.7 16.1 0.00 0.00 0.00 99 1008.0
20260510074614 8 281 1.6 14.5 0.00 0.30 0.00 94 1010.5
20260510074209 7 82 0.0 4.8 0.00 0.00 0.00 99 1008.1
20260510074111 8 78 0.0 0.0 0.00 0.30 0.00 95 1009.6
20260510073705 7 90 3.2 4.8 0.00 0.00 0.00 99 1007.8
20260510073322 8 78 0.0 0.0 0.00 0.30 0.00 95 1009.6
20260510073201 8 78 3.2 4.8 0.00 0.00 0.00 99 1007.8
20260510072825 8 78 0.0 0.0 0.00 0.30 0.00 95 1009.6
20260510072657 8 109 4.8 4.8 0.00 0.00 0.00 99 1008.1
20260510072322 8 78 0.0 0.0 0.00 0.30 0.00 95 1009.6
20260510072154 8 94 3.2 4.8 0.00 0.00 0.00 99 1008.0
20260510071819 8 78 0.0 0.0 0.00 0.30 0.00 94 1009.6
20260510071650 8 59 3.2 3.2 0.00 0.00 0.00 99 1008.0
20260510071317 8 78 0.0 0.0 0.00 0.30 0.00 94 1009.6
20260510071147 8 119 3.2 4.8 0.00 0.00 0.00 99 1008.0
20260510070846 8 78 0.0 0.0 0.00 0.30 0.00 94 1009.7
20260510070835 8 78 0.0 0.0 0.00 0.30 0.00 94 1009.7
20260510070645 8 81 0.0 3.2 0.00 0.00 0.00 99 1008.0
20260510070142 8 26 3.2 4.8 0.00 0.00 0.00 99 1008.2
20260510065815 8 78 0.0 0.0 0.00 0.30 0.00 94 1009.7
20260510065637 8 53 0.0 3.2 0.00 0.00 0.00 99 1008.0
20260510065306 8 78 0.0 0.0 0.00 0.30 0.00 94 1009.5
20260510065134 7 90 3.2 4.8 0.00 0.00 0.00 99 1007.8
20260510064755 8 78 0.0 0.0 0.00 0.30 0.00 94 1009.4
20260510064630 7 85 3.2 4.8 0.00 0.00 0.00 99 1007.6
20260510064254 8 78 0.0 0.0 0.00 0.30 0.00 94 1009.3
20260510064127 7 95 3.2 4.8 0.00 0.00 0.00 99 1007.6
20260510063753 8 78 0.0 0.0 0.00 0.30 0.00 94 1009.3
20260510063624 7 81 3.2 4.8 0.00 0.00 0.00 99 1007.6
20260510063250 8 78 0.0 0.0 0.00 0.30 0.00 94 1009.3
20260510063121 7 98 3.2 4.8 0.00 0.00 0.00 99 1007.9
20260510062751 8 78 0.0 0.0 0.00 0.30 0.00 94 1009.3
20260510062617 8 59 3.2 4.8 0.00 0.00 0.00 99 1007.8
20260510062248 8 78 0.0 0.0 0.00 0.30 0.00 94 1009.3
20260510062113 8 68 3.2 3.2 0.00 0.00 0.00 99 1007.7
20260510061744 8 78 0.0 0.0 0.00 0.30 0.00 94 1009.2
20260510061609 8 99 3.2 3.2 0.00 0.00 0.00 99 1007.7
20260510061244 8 78 0.0 0.0 0.00 0.30 0.00 94 1009.2
20260510061106 8 99 3.2 4.8 0.00 0.00 0.00 99 1007.4
20260510060733 8 78 0.0 0.0 0.00 0.30 0.00 94 1009.1
20260510060602 8 85 3.2 4.8 0.00 0.00 0.00 99 1007.6
20260510060219 8 78 0.0 0.0 0.00 0.30 0.00 94 1009.2
20260510060059 8 93 4.8 4.8 0.00 0.00 0.00 99 1007.5
20260510055711 8 78 0.0 0.0 0.00 0.30 0.00 94 1009.3
20260510055554 8 90 3.2 4.8 0.00 0.00 0.00 99 1007.9
20260510055210 8 78 0.0 0.0 0.00 0.30 0.00 94 1009.3
20260510055053 8 100 3.2 4.8 0.00 0.00 0.00 99 1007.8
20260510054710 8 78 0.0 0.0 0.00 0.30 0.00 94 1009.4
20260510054549 8 77 1.6 3.2 0.00 0.00 0.00 99 1007.8
20260510054208 8 78 0.0 0.0 0.00 0.30 0.00 94 1009.4
20260510054043 8 90 3.2 4.8 0.00 0.00 0.00 99 1008.0
20260510053706 8 78 0.0 0.0 0.00 0.30 0.00 94 1009.5
20260510053538 8 112 3.2 3.2 0.00 0.00 0.00 99 1007.8
20260510053205 8 78 0.0 0.0 0.00 0.30 0.00 94 1009.5
20260510053035 8 100 4.8 4.8 0.00 0.00 0.00 99 1007.9
20260510052946 8 78 0.0 0.0 0.00 0.30 0.00 93 1009.5
20260510052531 8 95 3.2 3.2 0.00 0.00 0.00 99 1007.8
20260510052149 8 78 0.0 0.0 0.00 0.30 0.00 94 1009.5
20260510052027 8 85 3.2 3.2 0.00 0.00 0.00 99 1008.2
20260510051927 8 78 0.0 0.0 0.00 0.30 0.00 94 1009.5
20260510051523 8 90 3.2 3.2 0.00 0.00 0.00 99 1008.0
20260510051129 8 78 0.0 0.0 0.00 0.30 0.00 93 1009.6
20260510051020 8 90 3.2 4.8 0.00 0.00 0.00 99 1007.8
20260510050621 8 78 0.0 0.0 0.00 0.30 0.00 93 1009.7
20260510050517 8 90 3.2 3.2 0.00 0.00 0.00 99 1007.9
20260510050407 8 78 0.0 0.0 0.00 0.30 0.00 93 1009.6
20260510050014 8 90 3.2 3.2 0.00 0.00 0.00 99 1008.0
20260510045621 8 78 0.0 0.0 0.00 0.30 0.00 93 1009.6
20260510045512 8 95 3.2 4.8 0.00 0.00 0.00 99 1007.9
20260510045120 8 78 0.0 0.0 0.00 0.30 0.00 93 1009.7
20260510045007 8 90 3.2 3.2 0.00 0.00 0.00 99 1008.1
20260510044858 8 78 0.0 0.0 0.00 0.30 0.00 93 1009.7
20260510044504 8 90 3.2 3.2 0.00 0.00 0.00 99 1008.0
20260510044118 8 78 0.0 0.0 0.00 0.30 0.00 93 1009.7
20260510044002 8 84 1.6 3.2 0.00 0.00 0.00 99 1008.1
20260510043617 8 78 0.0 0.0 0.00 0.30 0.00 93 1009.7
20260510043457 8 80 3.2 3.2 0.00 0.00 0.00 99 1007.9
20260510043114 9 78 0.0 0.0 0.00 0.30 0.00 93 1009.7
20260510042956 8 90 3.2 3.2 0.00 0.00 0.00 99 1008.2
20260510042613 9 78 0.0 0.0 0.00 0.30 0.00 93 1009.8
20260510042452 8 103 3.2 4.8 0.00 0.00 0.00 99 1008.2
20260510042102 9 78 0.0 0.0 0.00 0.30 0.00 93 1009.8
20260510041947 8 90 3.2 3.2 0.00 0.00 0.00 99 1008.2
20260510041841 9 78 0.0 0.0 0.00 0.30 0.00 93 1009.8
20260510041444 8 85 3.2 3.2 0.00 0.00 0.00 99 1008.2
20260510041107 9 78 0.0 0.0 0.00 0.30 0.00 93 1009.8
20260510040946 9 78 0.0 0.0 0.00 0.30 0.00 93 1009.9
20260510040942 8 90 3.2 3.2 0.00 0.00 0.00 99 1008.2
20260510040438 9 101 3.2 3.2 0.00 0.00 0.00 99 1008.3
20260510035934 9 98 3.2 3.2 0.00 0.38 0.38 99 1008.2
20260510035835 9 78 0.0 0.0 0.00 0.30 0.30 93 1009.9
20260510035430 9 77 1.6 3.2 0.00 0.38 0.38 99 1008.4
20260510035050 9 78 0.0 0.0 0.00 0.30 0.30 93 1009.9
20260510034925 9 90 3.2 3.2 0.00 0.38 0.38 99 1008.4
20260510034547 9 78 0.0 0.0 0.00 0.30 0.30 93 1009.8
20260510034424 9 90 3.2 3.2 0.00 0.38 0.38 99 1008.4
20260510034047 9 78 0.0 0.0 0.00 0.30 0.30 93 1009.8
20260510033919 9 78 1.6 3.2 0.00 0.38 0.38 99 1008.3
20260510033542 9 78 0.0 0.0 0.00 0.30 0.30 93 1009.8
20260510033416 9 80 3.2 3.2 0.00 0.38 0.38 99 1008.0
20260510033039 10 78 0.0 0.0 0.00 0.30 0.30 92 1009.9
20260510032913 9 120 3.2 3.2 0.00 0.38 0.38 99 1008.3
20260510032538 10 78 0.0 0.0 0.00 0.30 0.30 93 1009.8
20260510032410 9 102 1.6 3.2 0.00 0.38 0.38 99 1008.3
20260510032036 10 78 0.0 0.0 0.00 0.30 0.30 93 1009.8
20260510031905 9 90 3.2 3.2 0.00 0.38 0.38 99 1008.2
20260510031533 10 78 0.0 0.0 0.00 0.30 0.30 93 1009.7
20260510031400 10 90 3.2 3.2 0.00 0.38 0.38 99 1008.0
20260510031032 10 78 0.0 0.0 0.00 0.30 0.30 92 1009.7
20260510030855 9 90 3.2 3.2 0.00 0.38 0.38 99 1008.1
20260510030529 10 78 0.0 0.0 0.00 0.30 0.30 92 1009.7
20260510030351 10 95 3.2 3.2 0.00 0.38 0.38 99 1008.3
20260510030027 10 78 0.0 0.0 0.00 0.30 0.30 92 1009.6
20260510025849 10 96 3.2 3.2 0.00 0.38 0.38 99 1008.0
20260510025525 10 78 0.0 0.0 0.00 0.30 0.30 92 1009.6
20260510025346 10 70 3.2 3.2 0.00 0.38 0.38 99 1008.1
20260510025024 10 78 0.0 0.0 0.00 0.30 0.30 92 1009.5
20260510024843 10 96 3.2 3.2 0.00 0.38 0.38 99 1008.0
20260510024523 10 78 0.0 0.0 0.00 0.30 0.30 92 1009.4
20260510024340 10 90 1.6 3.2 0.00 0.38 0.38 99 1008.1
20260510024024 10 78 0.0 0.0 0.00 0.30 0.30 92 1009.4
20260510023836 10 103 3.2 4.8 0.00 0.38 0.38 99 1008.0
20260510023523 10 78 0.0 0.0 0.00 0.30 0.30 92 1009.4
20260510023333 10 81 3.2 4.8 0.00 0.38 0.38 99 1007.9
20260510023022 10 78 0.0 0.0 0.00 0.30 0.30 92 1009.4
20260510022830 10 84 3.2 3.2 0.00 0.38 0.38 99 1008.1
20260510022524 10 78 0.0 0.0 0.00 0.30 0.30 92 1009.6
20260510022329 10 95 3.2 3.2 0.00 0.38 0.38 99 1008.1
20260510022023 10 78 0.0 0.0 0.00 0.30 0.30 92 1009.4
20260510021828 10 90 3.2 3.2 0.00 0.38 0.38 99 1008.2
20260510021510 10 78 0.0 0.0 0.00 0.30 0.30 92 1009.4
20260510021327 10 84 3.2 3.2 0.00 0.38 0.38 99 1008.1
20260510020958 10 78 0.0 0.0 0.00 0.30 0.30 92 1009.5
20260510020822 10 90 3.2 3.2 0.00 0.38 0.38 99 1007.8
20260510020458 11 78 0.0 0.0 0.00 0.30 0.30 92 1009.4
20260510020317 10 68 3.2 3.2 0.00 0.38 0.38 99 1008.0
20260510015959 11 78 0.0 0.0 0.00 0.30 0.30 92 1009.4
20260510015813 10 101 3.2 3.2 0.00 0.38 0.38 99 1008.0
20260510015456 11 78 0.0 0.0 0.00 0.30 0.30 92 1009.3
20260510015310 10 84 3.2 3.2 0.00 0.38 0.38 99 1007.9
20260510014952 11 78 0.0 0.0 0.00 0.30 0.30 92 1009.3
20260510014805 11 68 3.2 3.2 0.00 0.38 0.38 99 1007.9
20260510014736 11 78 0.0 0.0 0.00 0.30 0.30 92 1009.3
20260510014302 11 90 3.2 3.2 0.00 0.38 0.38 99 1007.7
20260510013950 11 78 0.0 0.0 0.00 0.30 0.30 92 1009.2
20260510013758 11 86 3.2 3.2 0.00 0.38 0.38 99 1007.7
20260510013500 11 78 0.0 0.0 0.00 0.30 0.30 91 1009.2
20260510013254 11 82 3.2 4.8 0.00 0.38 0.38 99 1007.5
20260510012937 11 78 0.0 0.0 0.00 0.30 0.30 91 1009.1
20260510012749 11 90 3.2 4.8 0.00 0.38 0.38 99 1007.6
20260510012427 11 78 0.0 0.0 0.00 0.30 0.30 91 1009.1
20260510012244 11 90 3.2 4.8 0.00 0.38 0.38 99 1007.4
20260510011923 11 78 0.0 0.0 0.00 0.30 0.30 91 1009.1
20260510011743 11 97 4.8 4.8 0.00 0.38 0.38 98 1007.7
20260510011421 11 78 0.0 0.0 0.00 0.30 0.30 91 1009.1
20260510011239 11 103 3.2 4.8 0.00 0.38 0.38 98 1007.7
20260510010920 12 78 0.0 0.0 0.00 0.30 0.30 91 1009.0
20260510010737 11 95 3.2 3.2 0.00 0.38 0.38 98 1007.6
20260510010417 12 78 0.0 0.0 0.00 0.30 0.30 91 1008.9
20260510010233 11 95 3.2 3.2 0.00 0.38 0.38 98 1007.4
20260510005914 12 78 0.0 0.0 0.00 0.30 0.30 91 1008.8
20260510005730 11 90 3.2 3.2 0.00 0.38 0.38 98 1007.4
20260510005413 12 78 0.0 0.0 0.00 0.30 0.30 91 1008.8
20260510005226 12 94 3.2 4.8 0.00 0.38 0.38 98 1007.2
20260510004911 12 78 0.0 0.0 0.00 0.30 0.30 91 1008.8
20260510004724 12 95 3.2 4.8 0.00 0.38 0.38 98 1007.2
20260510004410 12 78 0.0 0.0 0.00 0.30 0.30 90 1008.8
20260510004222 12 90 4.8 4.8 0.00 0.38 0.38 98 1007.3
20260510003855 12 78 0.0 0.0 0.00 0.30 0.30 90 1008.8
20260510003719 12 94 3.2 4.8 0.00 0.38 0.38 98 1007.4
20260510003352 12 78 0.0 0.0 0.00 0.30 0.30 90 1008.7
20260510003215 12 94 4.8 4.8 0.00 0.38 0.38 97 1007.3
20260510002848 13 78 0.0 0.0 0.00 0.30 0.30 90 1008.7
20260510002714 12 94 4.8 4.8 0.00 0.38 0.38 97 1007.1
20260510002346 13 78 0.0 0.0 0.00 0.30 0.30 90 1008.6
20260510002212 12 90 3.2 3.2 0.00 0.38 0.38 97 1006.8
20260510001844 13 78 0.0 0.0 0.00 0.30 0.30 90 1008.5
20260510001708 12 93 4.8 4.8 0.00 0.38 0.38 97 1007.1
20260510001629 13 78 0.0 0.0 0.00 0.30 0.30 90 1008.6
20260510001207 12 90 3.2 3.2 0.00 0.38 0.38 97 1007.1
20260510000840 13 78 0.0 0.0 0.00 0.30 0.30 90 1008.5
20260510000702 13 94 3.2 3.2 0.00 0.38 0.38 97 1007.2
20260510000341 13 78 0.0 0.0 0.00 0.30 0.30 90 1008.5
20260510000200 13 94 4.8 4.8 0.00 0.38 0.38 96 1007.1
20260509235837 13 78 0.0 0.0 0.00 0.30 0.30 90 1008.5
20260509235656 13 78 3.2 4.8 0.00 0.38 0.38 96 1007.0
20260509235337 13 78 0.0 0.0 0.00 0.30 0.30 89 1008.5
20260509235152 13 102 4.8 4.8 0.00 0.38 0.38 96 1007.0
20260509234825 13 78 0.0 0.0 0.00 0.30 0.30 89 1008.5
20260509234649 13 103 3.2 4.8 0.00 0.38 0.38 96 1007.1
20260509234319 14 78 0.0 0.0 0.00 0.30 0.30 89 1008.4
20260509234146 13 98 3.2 4.8 0.00 0.38 0.38 95 1007.0
20260509233819 14 78 0.0 0.0 0.00 0.30 0.30 88 1008.5
20260509233644 13 105 4.8 6.4 0.00 0.38 0.38 95 1006.9
20260509233319 14 78 0.0 0.0 0.00 0.30 0.30 88 1008.5
20260509233141 14 80 3.2 4.8 0.00 0.38 0.38 95 1007.1
20260509232818 14 78 0.0 1.6 0.00 0.30 0.30 88 1008.6
20260509232637 14 96 3.2 4.8 0.00 0.38 0.38 94 1007.1
20260509232316 14 78 0.0 1.6 0.00 0.30 0.30 88 1008.5
20260509232134 14 86 4.8 6.4 0.00 0.38 0.38 94 1007.0
20260509231817 15 74 0.0 0.0 0.00 0.30 0.30 88 1008.4
20260509231631 14 90 4.8 6.4 0.00 0.38 0.38 94 1006.8
20260509231317 15 74 0.0 0.0 0.00 0.30 0.30 88 1008.5
20260509231128 15 101 4.8 4.8 0.00 0.38 0.38 94 1006.9
20260509230814 15 74 0.0 0.0 0.00 0.30 0.30 88 1008.5
20260509230625 15 110 4.8 4.8 0.00 0.38 0.38 93 1007.0
20260509230301 15 74 0.0 0.0 0.00 0.30 0.30 86 1008.5
20260509230122 15 103 3.2 4.8 0.00 0.38 0.38 93 1006.9
20260509225743 15 74 0.0 0.0 0.00 0.30 0.30 86 1008.5
20260509225618 15 90 4.8 4.8 0.00 0.38 0.38 92 1007.0
20260509225233 15 74 0.0 0.0 0.00 0.30 0.30 85 1008.5
20260509225114 15 109 4.8 4.8 0.00 0.38 0.38 91 1006.9
20260509224721 15 74 0.0 0.0 0.00 0.30 0.30 85 1008.4
20260509224609 15 94 3.2 4.8 0.00 0.38 0.38 90 1007.0
20260509224222 15 74 0.0 1.6 0.00 0.30 0.30 84 1008.5
20260509224106 15 102 3.2 4.8 0.00 0.38 0.38 88 1007.0
20260509223722 15 74 1.6 4.8 0.00 0.30 0.30 82 1008.4
20260509223603 15 98 3.2 4.8 0.00 0.38 0.38 86 1007.0
20260509223222 15 70 0.0 4.8 0.00 0.30 0.30 82 1008.5
20260509223101 15 90 4.8 4.8 0.00 0.38 0.38 87 1006.9
20260509222722 15 312 0.0 0.0 0.00 0.30 0.30 84 1008.4
20260509222557 15 98 3.2 4.8 0.00 0.38 0.38 87 1006.8
20260509222231 15 312 0.0 0.0 0.00 0.30 0.30 83 1008.4
20260509222053 15 108 3.2 4.8 0.00 0.38 0.38 88 1006.9
20260509221718 15 311 0.0 0.0 0.00 0.30 0.30 84 1008.4
20260509221548 15 113 3.2 3.2 0.00 0.38 0.38 87 1006.8
20260509221219 15 311 0.0 0.0 0.00 0.30 0.30 83 1008.5
20260509221045 15 124 3.2 3.2 0.00 0.38 0.38 87 1007.1
20260509220709 15 311 0.0 0.0 0.00 0.30 0.30 85 1008.5
20260509220541 15 98 3.2 6.4 0.00 0.38 0.38 89 1007.1
20260509220159 15 311 0.0 0.0 0.00 0.30 0.30 85 1008.5
20260509220037 15 99 3.2 3.2 0.00 0.38 0.38 88 1007.1
20260509215649 15 311 0.0 0.0 0.00 0.30 0.30 85 1008.5
20260509215532 15 98 3.2 4.8 0.00 0.38 0.38 89 1006.9
20260509215423 15 311 0.0 0.0 0.00 0.30 0.30 84 1008.5
20260509215030 15 90 1.6 3.2 0.00 0.38 0.38 88 1007.1
20260509214625 14 311 0.0 0.0 0.00 0.30 0.30 85 1008.4
20260509214527 15 90 1.6 1.6 0.00 0.38 0.38 88 1006.9
20260509214115 14 311 0.0 0.0 0.00 0.30 0.30 84 1008.4
20260509214024 15 90 3.2 3.2 0.00 0.38 0.38 88 1007.0
20260509213601 14 311 0.0 0.0 0.00 0.30 0.30 85 1008.4
20260509213520 15 100 3.2 3.2 0.00 0.38 0.38 88 1006.9
20260509213337 14 311 0.0 0.0 0.00 0.30 0.30 86 1008.5
20260509213017 15 106 1.6 3.2 0.00 0.38 0.38 86 1007.1
20260509212541 14 311 0.0 4.8 0.00 0.30 0.30 84 1008.4
20260509212514 15 102 3.2 4.8 0.00 0.38 0.38 86 1006.9
20260509212041 14 311 0.0 4.8 0.00 0.30 0.30 86 1008.5
20260509212011 15 111 1.6 4.8 0.00 0.38 0.38 86 1006.8
20260509211538 14 355 0.0 0.0 0.00 0.30 0.30 88 1008.5
20260509211506 15 96 4.8 4.8 0.00 0.38 0.38 91 1007.2
20260509211039 13 350 0.0 0.0 0.00 0.30 0.30 89 1008.6
20260509211003 15 90 3.2 3.2 0.00 0.38 0.38 93 1007.0
20260509210537 13 350 0.0 0.0 0.00 0.30 0.30 88 1008.6
20260509210500 14 84 3.2 3.2 0.00 0.38 0.38 93 1007.2
20260509210037 13 350 0.0 0.0 0.00 0.30 0.30 88 1008.6
20260509205956 13 90 3.2 4.8 0.00 0.38 0.38 93 1007.2
20260509205535 13 350 0.0 0.0 0.00 0.30 0.30 88 1008.7
20260509205450 13 101 4.8 4.8 0.00 0.38 0.38 93 1007.3
20260509205032 13 350 0.0 0.0 0.00 0.30 0.30 89 1008.7
20260509204946 13 85 3.2 3.2 0.00 0.38 0.38 93 1007.1
20260509204532 13 350 0.0 0.0 0.00 0.30 0.30 88 1008.7
20260509204443 13 115 3.2 4.8 0.00 0.38 0.38 93 1007.2
20260509204032 13 350 0.0 0.0 0.00 0.30 0.30 89 1008.7
20260509203940 13 107 3.2 3.2 0.00 0.38 0.38 92 1007.4
20260509203532 13 350 0.0 0.0 0.00 0.30 0.30 89 1008.6
20260509203435 13 108 3.2 3.2 0.00 0.38 0.38 93 1007.2
20260509203032 13 350 0.0 0.0 0.00 0.30 0.30 89 1008.6
20260509202933 13 103 3.2 4.8 0.00 0.38 0.38 93 1007.1
20260509202533 13 350 0.0 0.0 0.00 0.30 0.30 89 1008.7
20260509202429 14 90 3.2 4.8 0.00 0.38 0.38 93 1007.2
20260509202033 13 350 0.0 0.0 0.00 0.30 0.30 90 1008.6
20260509201924 14 103 3.2 4.8 0.00 0.38 0.38 93 1007.2
20260509201813 13 350 0.0 0.0 0.00 0.30 0.30 90 1008.7
20260509201420 14 29 1.6 6.4 0.00 0.38 0.38 95 1007.0
20260509201032 13 345 0.0 0.0 0.00 0.30 0.30 90 1008.6
20260509200917 13 97 4.8 4.8 0.00 0.38 0.38 95 1007.0
20260509200545 13 345 0.0 0.0 0.00 0.30 0.30 91 1008.7
20260509200417 13 90 3.2 4.8 0.00 0.38 0.38 95 1007.2
20260509200033 13 345 0.0 0.0 0.00 0.30 0.30 92 1008.7
20260509195914 13 69 1.6 3.2 0.00 0.38 0.38 96 1007.3
20260509195528 13 345 0.0 0.0 0.08 0.30 0.30 91 1008.8
20260509195409 13 106 1.6 4.8 0.00 0.38 0.38 96 1007.2
20260509195027 13 345 0.0 0.0 0.08 0.30 0.30 92 1008.6
20260509194908 13 85 3.2 4.8 0.71 0.38 0.38 96 1007.0
20260509194527 13 345 0.0 0.0 0.10 0.30 0.30 93 1008.8
20260509194405 13 12 4.8 4.8 0.71 0.38 0.38 96 1007.2
20260509194310 13 345 0.0 0.0 0.10 0.30 0.30 93 1008.6
20260509193902 13 85 3.2 3.2 0.00 0.25 0.25 97 1007.1
20260509193526 13 346 0.0 0.0 0.13 0.30 0.30 92 1008.8
20260509193402 13 101 4.8 6.4 0.00 0.25 0.25 97 1007.3
20260509193024 12 346 0.0 0.0 0.13 0.30 0.30 91 1008.9
20260509192858 13 86 3.2 4.8 0.00 0.25 0.25 97 1007.4
20260509192524 12 346 0.0 0.0 0.13 0.30 0.30 91 1009.0
20260509192354 12 90 4.8 4.8 0.00 0.25 0.25 97 1007.3
20260509192025 12 346 0.0 0.0 0.13 0.30 0.30 91 1009.2
20260509191850 12 94 3.2 6.4 0.00 0.25 0.25 97 1007.8
20260509191522 12 344 0.0 0.0 0.13 0.30 0.30 91 1009.3
20260509191346 12 93 4.8 6.4 0.00 0.25 0.25 96 1007.9
20260509191022 12 329 0.0 0.0 0.13 0.30 0.30 91 1009.4
20260509190842 12 97 4.8 4.8 0.00 0.25 0.25 96 1008.2
20260509190515 12 255 0.0 0.0 0.13 0.30 0.30 90 1009.6
20260509190339 12 53 3.2 4.8 0.00 0.25 0.25 96 1008.0
20260509190017 12 255 0.0 0.0 0.10 0.28 0.30 90 1009.6
20260509185836 12 30 3.2 4.8 0.00 0.25 0.25 95 1008.0
20260509185513 12 254 0.0 0.0 0.05 0.23 0.25 89 1009.7
20260509185333 12 45 3.2 4.8 0.00 0.25 0.25 95 1008.3
20260509185014 12 254 0.0 0.0 0.05 0.23 0.23 89 1009.9
20260509184830 12 75 3.2 3.2 0.18 0.25 0.25 94 1008.3
20260509184514 12 254 0.0 0.0 0.03 0.20 0.20 89 1009.9
20260509184327 12 69 1.6 3.2 0.18 0.25 0.25 94 1008.4
20260509184015 12 254 0.0 0.0 0.03 0.20 0.20 89 1010.0
20260509183824 12 90 3.2 3.2 0.00 0.23 0.23 94 1008.1
20260509183519 12 254 0.0 0.0 0.00 0.18 0.18 88 1010.0
20260509183334 12 254 0.0 0.0 0.00 0.18 0.18 88 1010.1
20260509183319 12 94 4.8 4.8 0.00 0.23 0.23 94 1008.5
20260509183045 12 254 0.0 0.0 0.00 0.18 0.18 88 1010.1
20260509182815 12 84 1.6 3.2 0.00 0.23 0.23 93 1008.4
20260509182312 12 63 1.6 4.8 0.00 0.23 0.23 93 1008.6
20260509182235 12 254 0.0 0.0 0.00 0.18 0.18 88 1010.2
20260509181809 12 81 3.2 3.2 0.00 0.23 0.23 92 1008.7
20260509181438 12 254 0.0 0.0 0.00 0.18 0.18 88 1010.2
20260509181307 12 51 3.2 4.8 0.00 0.23 0.23 93 1008.8
20260509180937 12 254 0.0 0.0 0.00 0.18 0.18 88 1010.3
20260509180804 12 63 3.2 3.2 0.00 0.23 0.23 93 1008.7
20260509180721 12 254 0.0 1.6 0.00 0.18 0.18 87 1010.3
20260509180300 12 53 3.2 3.2 0.00 0.23 0.23 92 1008.8
20260509175934 12 254 0.0 3.2 0.00 0.18 0.18 87 1010.4
20260509175756 12 74 1.6 4.8 0.00 0.23 0.23 92 1008.6
20260509175731 12 254 0.0 3.2 0.00 0.18 0.18 87 1010.4
20260509175253 12 48 3.2 4.8 0.00 0.23 0.23 92 1008.8
20260509174932 13 228 0.0 0.0 0.00 0.18 0.18 87 1010.4
20260509174749 12 57 3.2 3.2 0.00 0.23 0.23 91 1009.0
20260509174430 13 228 0.0 0.0 0.00 0.18 0.18 87 1010.4
20260509174244 12 90 1.6 3.2 0.00 0.23 0.23 91 1008.8
20260509173927 13 228 0.0 0.0 0.00 0.18 0.18 88 1010.4
20260509173740 12 65 3.2 4.8 0.00 0.23 0.23 92 1008.8
20260509173428 13 228 0.0 0.0 0.00 0.18 0.18 88 1010.4
20260509173236 12 75 1.6 3.2 0.00 0.23 0.23 92 1008.9
20260509172917 13 228 0.0 0.0 0.00 0.18 0.18 88 1010.4
20260509172733 12 45 3.2 4.8 0.00 0.23 0.23 92 1009.0
20260509172407 13 228 0.0 0.0 0.00 0.18 0.18 87 1010.4
20260509172229 12 63 3.2 4.8 0.00 0.23 0.23 93 1008.9
20260509172144 13 227 0.0 0.0 0.00 0.18 0.18 87 1010.5
20260509171724 12 66 0.0 1.6 0.13 0.23 0.23 92 1009.0
20260509171342 13 227 0.0 0.0 0.00 0.18 0.18 87 1010.5
20260509171221 12 90 3.2 3.2 0.13 0.23 0.23 92 1008.9
20260509170838 13 227 0.0 0.0 0.00 0.18 0.18 87 1010.5
20260509170718 12 52 3.2 3.2 0.00 0.20 0.20 93 1009.1
20260509170336 13 227 0.0 0.0 0.00 0.18 0.18 88 1010.5
20260509170214 13 74 1.6 3.2 0.00 0.20 0.20 93 1008.9
20260509165834 13 227 0.0 0.0 0.00 0.18 0.18 87 1010.4
20260509165713 13 99 0.0 3.2 0.00 0.20 0.20 92 1008.9
20260509165332 13 227 0.0 0.0 0.00 0.18 0.18 87 1010.3
20260509165208 13 60 0.0 3.2 0.00 0.20 0.20 93 1008.9
20260509164833 13 227 0.0 0.0 0.03 0.18 0.18 88 1010.4
20260509164704 13 66 3.2 3.2 0.00 0.20 0.20 92 1008.6
20260509164331 13 227 0.0 0.0 0.03 0.18 0.18 88 1010.4
20260509164200 13 80 3.2 4.8 0.00 0.20 0.20 92 1008.7
20260509163830 13 227 0.0 0.0 0.03 0.18 0.18 89 1010.4
20260509163658 13 71 0.0 3.2 0.00 0.20 0.20 93 1009.0
20260509163319 13 227 0.0 0.0 0.05 0.18 0.18 89 1010.3
20260509163154 13 35 0.0 3.2 0.00 0.20 0.20 93 1008.9
20260509163106 13 227 0.0 0.0 0.05 0.18 0.18 88 1010.3
20260509162652 13 117 3.2 4.8 0.00 0.20 0.20 93 1008.7
20260509162319 13 227 0.0 0.0 0.08 0.18 0.18 89 1010.1
20260509162147 13 103 1.6 1.6 0.00 0.20 0.20 93 1008.3
20260509161816 13 227 0.0 0.0 0.08 0.18 0.18 90 1009.9
20260509161643 13 90 3.2 3.2 0.30 0.20 0.20 95 1008.3
20260509161316 13 227 0.0 0.0 0.10 0.18 0.18 90 1010.0
20260509161138 13 84 3.2 3.2 0.30 0.20 0.20 96 1008.6
20260509160817 13 227 0.0 0.0 0.10 0.18 0.18 90 1010.1
20260509160634 12 90 4.8 4.8 0.00 0.15 0.15 96 1008.8
20260509160314 13 227 0.0 0.0 0.13 0.18 0.18 91 1010.4
20260509160130 13 66 3.2 3.2 0.00 0.15 0.15 97 1008.9
20260509155813 13 227 0.0 0.0 0.13 0.18 0.18 91 1010.6
20260509155626 13 113 3.2 4.8 0.00 0.15 0.15 97 1009.1
20260509155556 13 227 0.0 0.0 0.15 0.18 0.18 90 1010.5
20260509155122 12 117 3.2 3.2 0.00 0.15 0.15 97 1008.7
20260509154811 13 227 0.0 0.0 0.13 0.15 0.15 90 1010.4
20260509154618 12 75 1.6 3.2 0.00 0.15 0.15 97 1009.2
20260509154308 13 227 0.0 0.0 0.13 0.15 0.15 90 1010.7
20260509154116 12 72 3.2 3.2 0.00 0.15 0.15 96 1009.1
20260509153806 13 227 0.0 0.0 0.13 0.15 0.15 89 1010.9
20260509153613 12 114 1.6 3.2 0.36 0.15 0.15 96 1009.4
20260509153303 13 227 0.0 0.0 0.10 0.13 0.13 89 1010.9
20260509153110 12 61 3.2 3.2 0.36 0.15 0.15 95 1009.4
20260509152802 13 227 0.0 0.0 0.13 0.13 0.13 88 1011.2
20260509152605 12 0 0.0 1.6 0.00 0.10 0.10 95 1009.9
20260509152305 13 225 0.0 0.0 0.10 0.10 0.10 88 1011.3
20260509152103 13 106 0.0 1.6 0.00 0.10 0.10 94 1009.9
20260509151802 13 174 0.0 0.0 0.10 0.10 0.10 87 1011.2
20260509151602 13 174 0.0 0.0 0.08 0.08 0.08 87 1011.2
20260509151559 12 151 0.0 1.6 0.13 0.10 0.10 93 1009.7
20260509151307 13 174 0.0 0.0 0.08 0.08 0.08 87 1011.2
20260509151057 13 180 1.6 1.6 0.13 0.10 0.10 93 1009.7
20260509150554 13 99 0.0 1.6 0.18 0.08 0.08 93 1009.5
20260509150228 13 174 0.0 4.8 0.05 0.05 0.05 87 1011.2
20260509150053 13 66 1.6 3.2 0.18 0.08 0.08 92 1009.6
20260509145718 13 174 0.0 4.8 0.05 0.05 0.05 86 1011.2
20260509145548 13 254 0.0 4.8 0.00 0.05 0.05 92 1009.7
20260509145204 13 173 0.0 3.2 0.03 0.03 0.03 86 1011.1
20260509145043 13 117 1.6 3.2 0.13 0.05 0.05 92 1009.6
20260509144650 13 173 0.0 4.8 0.03 0.03 0.03 85 1011.0
20260509144540 13 225 0.0 3.2 0.13 0.05 0.05 92 1009.5
20260509144149 13 173 1.6 4.8 0.03 0.03 0.03 85 1010.9
20260509144037 13 140 0.0 3.2 0.00 0.03 0.03 91 1009.2
20260509143935 13 173 1.6 4.8 0.03 0.03 0.03 84 1010.9
20260509143534 13 148 3.2 3.2 0.18 0.03 0.03 90 1009.7
20260509143146 14 173 0.0 4.8 0.00 0.00 0.00 83 1010.8
20260509143032 13 90 0.0 3.2 0.18 0.03 0.03 89 1009.5
20260509142657 14 173 0.0 4.8 0.00 0.00 0.00 82 1010.9
20260509142527 14 171 3.2 4.8 0.00 0.00 0.00 88 1009.2
20260509142142 14 173 1.6 4.8 0.00 0.00 0.00 81 1010.6
20260509142023 14 145 0.0 1.6 0.00 0.00 0.00 85 1009.3
20260509141639 14 173 0.0 4.8 0.00 0.00 0.00 80 1010.7
20260509141520 14 188 0.0 4.8 0.00 0.00 0.00 84 1009.0
20260509141420 14 188 1.6 6.4 0.00 0.00 0.00 79 1010.6
20260509141016 14 180 0.0 3.2 0.00 0.00 0.00 84 1008.9
20260509140630 14 194 3.2 6.4 0.00 0.00 0.00 79 1010.6
20260509140513 14 130 4.8 4.8 0.00 0.00 0.00 83 1009.0
20260509140129 14 187 3.2 6.4 0.00 0.00 0.00 79 1010.5
20260509140011 14 209 1.6 4.8 0.00 0.00 0.00 84 1009.0
20260509135917 14 214 3.2 6.4 0.00 0.00 0.00 79 1010.5
20260509135508 14 203 0.0 4.8 0.00 0.00 0.00 84 1009.0
20260509135128 14 175 3.2 6.4 0.00 0.00 0.00 78 1010.4
20260509135005 14 203 1.6 3.2 0.00 0.00 0.00 83 1008.8
20260509134631 14 169 3.2 8.0 0.00 0.00 0.00 78 1010.4
20260509134503 14 180 1.6 6.4 0.00 0.00 0.00 83 1008.8
20260509134130 14 150 1.6 8.0 0.00 0.00 0.00 78 1010.3
20260509134000 14 189 3.2 4.8 0.00 0.00 0.00 82 1008.5
20260509133629 14 140 1.6 4.8 0.00 0.00 0.00 79 1010.4
20260509133456 14 124 3.2 6.4 0.00 0.00 0.00 83 1008.7
20260509133128 14 174 0.0 4.8 0.00 0.00 0.00 81 1010.3
20260509132955 14 126 1.6 3.2 0.00 0.00 0.00 84 1008.8
20260509132623 13 174 1.6 6.4 0.00 0.00 0.00 81 1010.4
20260509132453 14 206 1.6 3.2 0.00 0.00 0.00 84 1008.8
20260509132123 13 163 1.6 11.3 0.00 0.00 0.00 81 1010.4
20260509131950 14 196 3.2 4.8 0.00 0.00 0.00 84 1008.9
20260509131623 13 127 0.0 11.3 0.00 0.00 0.00 83 1010.3
20260509131447 14 139 3.2 3.2 0.00 0.00 0.00 86 1008.9
20260509131123 13 19 0.0 3.2 0.00 0.00 0.00 85 1010.3
20260509130943 13 66 1.6 3.2 0.00 0.00 0.00 87 1008.7
20260509130623 13 32 0.0 3.2 0.00 0.00 0.00 85 1010.3
20260509130438 13 90 4.8 6.4 0.00 0.00 0.00 89 1008.8
20260509130124 13 63 0.0 0.0 0.00 0.00 0.00 85 1010.4
20260509125936 13 99 3.2 4.8 0.00 0.00 0.00 89 1008.7
20260509125624 12 63 0.0 0.0 0.00 0.00 0.00 85 1010.4
20260509125432 13 90 0.0 3.2 0.00 0.00 0.00 89 1008.9
20260509125118 12 63 0.0 0.0 0.00 0.00 0.00 85 1010.2
20260509124928 12 121 3.2 4.8 0.00 0.00 0.00 89 1008.8
20260509124617 12 63 0.0 0.0 0.00 0.00 0.00 86 1010.2
20260509124426 12 106 4.8 4.8 0.00 0.00 0.00 89 1008.6
20260509124115 12 63 0.0 0.0 0.00 0.00 0.00 86 1010.2
20260509123923 12 95 3.2 4.8 0.00 0.00 0.00 89 1008.6
20260509123618 12 62 0.0 0.0 0.00 0.00 0.00 87 1010.3
20260509123420 12 78 3.2 3.2 0.00 0.00 0.00 90 1008.9
20260509123115 12 62 0.0 0.0 0.00 0.00 0.00 87 1010.3
20260509122916 12 103 4.8 4.8 0.00 0.00 0.00 91 1008.8
20260509122618 11 62 0.0 0.0 0.00 0.00 0.00 87 1010.4
20260509122413 12 84 3.2 4.8 0.00 0.00 0.00 91 1008.8
20260509122116 11 62 0.0 0.0 0.00 0.00 0.00 88 1010.4
20260509121910 12 80 3.2 4.8 0.00 0.00 0.00 92 1008.8
20260509121613 11 62 0.0 0.0 0.00 0.00 0.00 88 1010.4
20260509121407 12 90 3.2 4.8 0.00 0.00 0.00 93 1008.7
20260509121114 11 62 0.0 0.0 0.00 0.00 0.00 88 1010.4
20260509120905 11 68 3.2 4.8 0.00 0.00 0.00 92 1008.9
20260509120558 11 62 0.0 0.0 0.00 0.00 0.00 88 1010.4
20260509120405 11 62 0.0 0.0 0.00 0.00 0.00 88 1010.3
20260509120402 11 94 3.2 4.8 0.00 0.00 0.00 93 1008.9